"Pseudo-MPEC" for ZTF0LAq = ZTF0LAZ = ZTF0LBm

Created 2021 Jun 5 14:27:05 UT using Find_Orb

Click here for an explanation of pseudo-MPECs

TLEs are available for this object, and for most of the other objects listed on these pages. Note that, because of sparse data and unpredictable non-gravs, the TLEs are probably only good for a few months around the date of observation. I mostly just hope that they'll be good enough so that if the object is found again, it'll be identified and the orbit can be improved.

 
 Astrometry: 
     ZTF0LAq* C2021 06 03.31267416 16 25.09 -09 41 31.4    ~63DM 15.93RUNEOCPI41
     ZTF0LAq  C2021 06 03.31302116 16 32.68 -09 41 23.8    ~63DM 15.93RUNEOCPI41
     ZTF0LAq  C2021 06 03.39107616 42 15.69 -09 14 34.4    ~63DM 16.26RUNEOCPI41
     ZTF0LAq  C2021 06 03.39142416 42 22.03 -09 14 27.0    ~63DM 16.26RUNEOCPI41
     ZTF0LAq  C2021 06 03.39153916 42 24.14 -09 14 23.7    ~63DM 16.17RUNEOCPI41
     ZTF0LAq  C2021 06 03.39188716 42 30.51 -09 14 16.8    ~63DM 16.17RUNEOCPI41
     ZTF0LAq  C2021 06 03.39201416 42 32.64 -09 14 14.8    ~63DM 16.14RUNEOCPI41
     ZTF0LAq  C2021 06 03.39236116 42 38.90 -09 14 07.8    ~63DM 16.14RUNEOCPI41
     ZTF0LAq  C2021 06 03rs$npwAFdKXu;Astrometry][Yd4%xPL(W-qredacted;?uwknV_U83
     ZTF0LAq  C2021 06 03dSclick;`%12'o[`4I?2yknVUMAQK2y[qd4fJhk5!EhereJZ^*upU83
     ZTF0LAq  C2021 06 03)f?9iNg0%lforw%MHC;5G*\_LS/,/nj+tq7g:f.KkHJ'pmw+n[fQU83
     ZTF0LAq  C2021 06 03@l^)RmwCRpq$a^MmisGkCOk!_agjexplanation'3(0fPb/(2,sdU83
     ZTF0LBm* C2021 06 05.35318317 00 57.27 -09 07 42.7    ~65E3 16.32RUNEOCPI41
     ZTF0LBm  C2021 06 05.35353017 01 03.00 -09 07 38.3    ~65E3 16.32RUNEOCPI41
     ZTF0LBm  C2021 06 05.37832217 07 44.09 -09 02 12.8    ~65E3 16.63gUNEOCPI41
     ZTF0LBm  C2021 06 05.37866917 07 49.64 -09 02 07.9    ~65E3 16.63gUNEOCPI41

Station data:
(I41) Palomar Mountain--ZTF  (N33.357340 W116.859780)  US/California.
   Observers B. T. Bolin, Z. T. F. Collaboration. Measurers B. T. Bolin,
   Z.-Y. Lin, F. J. Masci. 1.2-m f/2.4 Schmidt.
(U83) Mount Laguna Observatory  (N32.842004 W116.426890)  US/California.

Orbital elements:  ZTF0LAq = ZTF0LAZ = ZTF0LBm
   Perigee 2021 Jun 3.044666 +/- 0.000401 TT =  1:04:19.1 (JD 2459368.544666)
Epoch 2021 Jun  3.0 TT; AMR 63.191 +/- 0.25 m2/kg            Gray
M 343.302118102 +/- 0.14            (J2000 equator)
n 373.842935856 +/- 0.00233         Peri.  104.627990 +/- 0.051
a 41191.79528 +/- 0.171             Node   339.527741 +/- 0.025
e   0.73444548 +/- 0.000326         Incl.    5.652761 +/- 0.0028
P1386.65m/0.963d           H 33.3   G  0.15   U  8.7
q 10938.66740 +/- 13.4    Q 71444.92316 +/- 13.5
From 16 observations 2021 June 3-5; mean residual 1".791
Residuals in arcseconds: 
210603 I41 1.05+ .388-    210603 I41 3.97- .471+    210605 I41 2.12- .739+
210603 I41 .407+ .556-    210603 I41 4.67- .727+    210605 I41 1.59- .588+
210603 I41 2.27- .887-    210603 U83 3.88+ .182-    210605 I41 1.42+ 1.03-
210603 I41 2.18- .257-    210603 U83 2.79+ .517+    210605 I41 1.54+ .739-
210603 I41 1.92- .806+    210603 U83 1.36+ .193-
210603 I41 1.32- .940+    210603 U83 2.44+ .253-

Ephemerides (geocentric):
Date (UTC) HH   RA             Dec           delta elong  mag " sig PA
---- --------  ------------   ------------  ------ -----  --- --------
2021 06 05 00  09 13 24.701   +02 21 57.58   12962  66.4 17.4  944  96
2021 06 05 01  12 58 05.550   -02 52 10.96   24733 120.1 16.6  206  98
2021 06 05 02  14 18 56.740   -04 20 17.35   35246 138.8 16.8 77.3  99
2021 06 05 03  15 04 54.375   -04 56 38.59   43827 148.7 17.0 37.3 102
2021 06 05 04  15 36 52.862   -05 15 03.90   50863 154.9 17.2 20.4 104
2021 06 05 05  16 01 40.753   -05 25 13.76   56635 158.9 17.3 12.2 107
2021 06 05 06  16 22 16.316   -05 30 51.43   61330 161.4 17.4 8.11 107
2021 06 05 07  16 40 12.503   -05 33 39.28   65072 162.7 17.4 6.21 104
2021 06 05 08  16 56 24.266   -05 34 29.50   67948 163.0 17.5 5.77  96
2021 06 05 09  17 11 27.542   -05 33 50.11   70017 162.5 17.6 6.42  89
2021 06 05 10  17 25 48.111   -05 31 55.87   71317 161.3 17.7 7.94  83
2021 06 05 11  17 39 46.289   -05 28 53.21   71872 159.6 17.8 10.2  80
2021 06 05 12  17 53 39.794   -05 24 42.44   71690 157.6 17.8 13.2  79
2021 06 05 13  18 07 45.837   -05 19 18.26   70769 155.2 17.9 17.0  79
2021 06 05 14  18 22 23.084   -05 12 29.16   69093 152.5 17.9 21.8  79
2021 06 05 15  18 37 54.029   -05 03 55.28   66630 149.5 17.9 28.0  79
2021 06 05 16  18 54 48.563   -04 53 03.96   63332 146.0 17.9 36.0  79
2021 06 05 17  19 13 50.282   -04 39 00.63   59127 141.9 17.9 47.0  80
2021 06 05 18  19 36 09.150   -04 20 09.17   53912 137.0 17.8 63.0  80
2021 06 05 19  20 03 50.676   -03 53 24.70   47533 130.7 17.7 88.1  81
2021 06 05 20  20 41 15.897   -03 12 00.40   39759 122.0 17.6  133  82
2021 06 05 21  21 39 45.039   -01 57 32.31   30243 108.2 17.4  237  82
2021 06 05 22  23 43 29.897   +00 58 41.23   18686  78.6 17.5  610  83
2021 06 05 23  06 53 50.077   +04 52 34.66   10926  33.6 20?? 1626  93
2021 06 06 00  12 24 56.047   -01 56 47.03   21449 111.3 16.5  352  97
2021 06 06 01  14 05 17.393   -03 57 10.44   32570 134.7 16.8  123  98
2021 06 06 02  14 57 22.138   -04 43 07.13   41661 146.2 17.0 60.4  99
2021 06 06 03  15 32 04.756   -05 05 50.35   49100 153.1 17.1 35.0 100
2021 06 06 04  15 58 20.478   -05 18 28.60   55206 157.7 17.3 22.8 101
2021 06 06 05  16 19 47.874   -05 25 46.92   60188 160.6 17.3 16.4 100
2021 06 06 06  16 38 16.147   -05 29 51.48   64188 162.3 17.4 13.2  98
2021 06 06 07  16 54 47.849   -05 31 45.43   67300 162.9 17.5 11.9  94
2021 06 06 08  17 10 02.813   -05 32 02.63   69589 162.6 17.6 11.9  90
2021 06 06 09  17 24 28.893   -05 31 01.40   71101 161.7 17.7 13.0  87
2021 06 06 10  17 38 27.469   -05 28 50.70   71862 160.2 17.7 15.0  84
2021 06 06 11  17 52 16.648   -05 25 32.93   71886 158.3 17.8 17.8  82
2021 06 06 12  18 06 13.498   -05 21 04.95   71172 156.1 17.9 21.4  81
2021 06 06 13  18 20 35.974   -05 15 17.76   69707 153.5 17.9 26.2  81
2021 06 06 14  18 35 45.102   -05 07 54.98   67467 150.6 17.9 32.3  81
2021 06 06 15  18 52 08.093   -04 58 29.26   64406 147.3 17.9 40.3  81
2021 06 06 16  19 10 23.618   -04 46 15.07   60462 143.5 17.9 51.3  81
2021 06 06 17  19 31 32.049   -04 29 53.30   55539 138.9 17.8 66.9  81
2021 06 06 18  19 57 18.100   -04 06 55.53   49499 133.1 17.7 91.0  81
2021 06 06 19  20 31 09.626   -03 32 07.70   42137 125.3 17.6  133  82
2021 06 06 20  21 21 29.405   -02 32 09.37   33139 113.5 17.4  222  82
2021 06 06 21  22 56 43.365   -00 21 14.00   22106  90.8 17.3  496  83
2021 06 06 22  04 05 37.678   +05 15 01.71   11101  21.8 23?? 1851  88
2021 06 06 23  11 38 09.100   -00 38 38.26   18027  99.1 16.6  610  97
2021 06 07 00  13 48 32.757   -03 28 40.03   29718 129.9 16.7  188  97
2021 06 07 01  14 48 39.900   -04 27 26.79   39357 143.3 16.9 89.3  98
2021 06 07 02  15 26 42.683   -04 55 26.85   47227 151.2 17.1 52.2  98
2021 06 07 03  15 54 41.409   -05 10 57.95   53684 156.3 17.2 34.7  98
2021 06 07 04  16 17 08.342   -05 20 09.27   58966 159.7 17.3 25.5  98
2021 06 07 05  16 36 13.176   -05 25 37.56   63230 161.7 17.4 20.7  96
2021 06 07 06  16 53 07.719   -05 28 39.51   66583 162.6 17.5 18.3  94
2021 06 07 07  17 08 36.449   -05 29 55.93   69098 162.7 17.6 17.7  91
2021 06 07 08  17 23 09.690   -05 29 49.23   70824 162.0 17.7 18.2  88
2021 06 07 09  17 37 10.111   -05 28 31.14   71793 160.7 17.7 19.8  86
2021 06 07 10  17 50 56.379   -05 26 06.27   72022 159.0 17.8 22.3  84
2021 06 07 11  18 04 45.565   -05 22 33.54   71514 156.9 17.8 25.8  83
2021 06 07 12  18 18 55.087   -05 17 46.32   70261 154.5 17.9 30.4  82
2021 06 07 13  18 33 44.753   -05 11 31.31   68240 151.8 17.9 36.5  82
2021 06 07 14  18 49 39.515   -05 03 25.76   65413 148.6 17.9 44.4  82
2021 06 07 15  19 07 13.926   -04 52 51.68   61721 145.0 17.9 55.2  82
2021 06 07 16  19 27 20.502   -04 38 43.81   57081 140.7 17.8 70.4  82
2021 06 07 17  19 51 27.507   -04 19 02.25   51368 135.3 17.7 93.5  82
2021 06 07 18  20 22 22.910   -03 49 41.93   44396 128.3 17.6  132  82
2021 06 07 19  21 06 27.605   -03 00 51.93   35885 118.0 17.5  210  83
2021 06 07 20  22 22 52.295   -01 21 33.89   25431  99.9 17.3  420  83
2021 06 07 21  01 50 37.430   +03 19 18.82   13404  50.6 18?? 1451  85
2021 06 07 22  10 27 33.861   +01 14 37.81   14624  81.2 16.9 1097  96
2021 06 07 23  13 27 25.457   -02 52 31.04   26678 124.0 16.6  283  97
2021 06 08 00  14 38 28.253   -04 09 02.81   36905 140.2 16.9  126  97
2021 06 08 01  15 20 39.310   -04 43 39.69   45235 149.1 17.1 72.7  97
2021 06 08 02  15 50 40.000   -05 02 34.83   52064 154.8 17.2 48.3  97
2021 06 08 03  16 14 15.696   -05 13 54.31   57659 158.6 17.3 35.6  97
2021 06 08 04  16 34 02.289   -05 20 54.76   62197 161.0 17.4 28.8  95
2021 06 08 05  16 51 22.955   -05 25 09.80   65797 162.3 17.5 25.1  94
2021 06 08 06  17 07 07.751   -05 27 28.62   68541 162.6 17.6 23.6  91
2021 06 08 07  17 21 49.928   -05 28 18.38   70484 162.2 17.6 23.5  89

   RA/decs are astrometric J2000 coordinates (corrected for light
time lag,  but in the inertial J2000 frame,  i.e.,  not rotated
for precession or nutation,  and differential light deflection is
not included.)   Display can be turned on/off in the 'advanced
options' for ephemerides.  When turning them on,  you can select
from various format choices (base-60,  decimal, different
precisions,  etc.)

   Distances are in kilometers for distances under one million km
(about 0.00668 AU),  and in AUs for larger distances.